Simultaneous Nadir Overpasses (SNOs) Predictions

Prediction of SNOs between AQUA and NOAA-19 Satellite Orbit:

Table of predicted SNOs for the next 14.0 days since TLE Epoch: 12/20/2014
Index Date (AQUA) Time (AQUA) Lat,Lon (AQUA) SZA (AQUA ) Date (NOAA-19) Time (NOAA-19) Lat,Lon (NOAA-19) SZA (NOAA-19 ) Distance(km) Time Diff (sec)
1 12/21/2014 23:35:14 -79.22, -18.86 76.49 12/21/2014 23:34:11 -79.22, -18.92 76.46 1.33 63
2 12/22/2014 00:24:35 78.98, 150.25 103.19 12/22/2014 00:25:02 78.99, 150.16 103.20 2.20 27
3 12/24/2014 05:08:57 79.07, 78.59 103.32 12/24/2014 05:08:40 79.07, 78.70 103.31 2.39 17
4 12/26/2014 09:53:20 79.25, 6.43 103.52 12/26/2014 09:52:21 79.25, 6.36 103.55 1.48 59
5 12/26/2014 10:42:40 -79.00, 175.59 76.82 12/26/2014 10:43:18 -79.01, 175.47 76.82 2.89 38
6 12/28/2014 15:27:00 -79.10, 103.96 76.77 12/28/2014 15:26:55 -79.09, 103.99 76.77 0.78 5
7 12/30/2014 20:11:20 -79.23, 32.08 76.71 12/30/2014 20:10:33 -79.22, 32.17 76.70 2.16 47
8 12/30/2014 21:00:40 78.96,-158.64 102.93 12/30/2014 21:01:25 78.95,-158.57 102.91 1.56 45




NCC Satellite Simultaneous Nadir Overpasses (SNOs) Prediction Service
